• In Belarus
  • List of Countries
  • For 7 days
  • Water Temperature
  • Satellite Maps
  • Weather Map
  • Weather Widgets
  • user-avatar
    Login

    Hourly Weather Siecieborzyce

    Today, 15 October, Monday

    Time Temperature Precipitation Wind Pressure Humidity
    00:00 +14°C° 0 mm 4 mps 749 mmHg 45%
    01:00 +13°C° 0 mm 3 mps 749 mmHg 44%
    02:00 +13°C° 0 mm 3 mps 749 mmHg 43%
    03:00 +13°C° 0 mm 3 mps 749 mmHg 42%
    04:00 +13°C° 0 mm 4 mps 749 mmHg 40%
    05:00 +13°C° 0 mm 4 mps 749 mmHg 41%
    06:00 +13°C° 0 mm 4 mps 749 mmHg 42%
    07:00 +13°C° 0 mm 3 mps 749 mmHg 42%
    08:00 +15°C° 0 mm 4 mps 749 mmHg 38%
    09:00 +18°C° 0 mm 4 mps 750 mmHg 34%
    10:00 +20°C° 0 mm 5 mps 750 mmHg 30%
    11:00 +21°C° 0 mm 4 mps 750 mmHg 30%
    12:00 +22°C° 0 mm 4 mps 750 mmHg 29%
    13:00 +23°C° 0 mm 4 mps 750 mmHg 29%
    14:00 +23°C° 0 mm 4 mps 750 mmHg 33%
    15:00 +22°C° 0 mm 3 mps 749 mmHg 36%
    16:00 +21°C° 0 mm 2 mps 749 mmHg 40%
    17:00 +20°C° 0 mm 2 mps 749 mmHg 43%
    18:00 +18°C° 0 mm 3 mps 749 mmHg 47%
    19:00 +17°C° 0 mm 3 mps 749 mmHg 51%
    20:00 +16°C° 0 mm 3 mps 749 mmHg 53%
    21:00 +16°C° 0 mm 3 mps 749 mmHg 54%
    22:00 +15°C° 0 mm 2 mps 749 mmHg 55%
    23:00 +15°C° 0 mm 2 mps 749 mmHg 55%

    Tomorrow, 16 October, Tuesday

    Time Temperature Precipitation Wind Pressure Humidity
    00:00 +14°C° 0 mm 2 mps 750 mmHg 55%
    01:00 +14°C° 0 mm 2 mps 750 mmHg 55%
    02:00 +14°C° 0 mm 2 mps 749 mmHg 55%
    03:00 +13°C° 0 mm 2 mps 749 mmHg 55%
    04:00 +13°C° 0 mm 2 mps 749 mmHg 55%
    05:00 +13°C° 0 mm 2 mps 749 mmHg 56%
    06:00 +13°C° 0 mm 2 mps 750 mmHg 56%
    07:00 +13°C° 0 mm 2 mps 750 mmHg 56%
    08:00 +15°C° 0 mm 2 mps 750 mmHg 52%
    09:00 +16°C° 0 mm 2 mps 750 mmHg 47%
    10:00 +18°C° 0 mm 2 mps 750 mmHg 43%
    11:00 +19°C° 0 mm 2 mps 750 mmHg 42%
    12:00 +20°C° 0 mm 2 mps 750 mmHg 40%
    13:00 +21°C° 0 mm 2 mps 750 mmHg 39%
    14:00 +21°C° 0 mm 2 mps 750 mmHg 42%
    15:00 +21°C° 0 mm 2 mps 750 mmHg 45%
    16:00 +21°C° 0 mm 1 mps 750 mmHg 48%
    17:00 +20°C° 0 mm 1 mps 750 mmHg 52%
    18:00 +18°C° 0 mm 1 mps 750 mmHg 57%
    19:00 +15°C° 0 mm 1 mps 750 mmHg 61%
    20:00 +15°C° 0 mm 1 mps 751 mmHg 63%
    21:00 +14°C° 0 mm 2 mps 751 mmHg 65%
    22:00 +14°C° 0 mm 2 mps 751 mmHg 67%
    23:00 +14°C° 0 mm 1 mps 751 mmHg 68%

    Day after tomorrow, 17 October, Wednesday

    Time Temperature Precipitation Wind Pressure Humidity
    00:00 +13°C° 0 mm 1 mps 751 mmHg 70%
    01:00 +13°C° 0 mm 1 mps 751 mmHg 72%
    02:00 +13°C° 0 mm 1 mps 751 mmHg 73%
    03:00 +12°C° 0 mm 1 mps 751 mmHg 75%
    04:00 +12°C° 0 mm 1 mps 751 mmHg 76%
    05:00 +12°C° 0 mm 1 mps 751 mmHg 77%
    06:00 +12°C° 0 mm 1 mps 751 mmHg 77%
    07:00 +12°C° 0 mm 1 mps 751 mmHg 78%
    08:00 +14°C° 0 mm 1 mps 751 mmHg 71%
    09:00 +16°C° 0 mm 1 mps 751 mmHg 63%
    10:00 +19°C° 0 mm 1 mps 751 mmHg 55%
    11:00 +20°C° 0 mm 1 mps 751 mmHg 52%
    12:00 +22°C° 0 mm 1 mps 751 mmHg 49%
    13:00 +23°C° 0 mm 1 mps 751 mmHg 46%
    14:00 +22°C° 0 mm 1 mps 750 mmHg 48%
    15:00 +22°C° 0 mm 1 mps 750 mmHg 51%
    16:00 +19°C° 0 mm 0 mps 750 mmHg 53%
    17:00 +20°C° 0 mm 1 mps 750 mmHg 57%
    18:00 +18°C° 0 mm 1 mps 750 mmHg 61%
    19:00 +16°C° 0 mm 1 mps 750 mmHg 65%
    20:00 +15°C° 0 mm 1 mps 750 mmHg 67%
    21:00 +15°C° 0 mm 1 mps 751 mmHg 69%
    22:00 +14°C° 0 mm 1 mps 751 mmHg 72%
    23:00 +14°C° 0 mm 1 mps 751 mmHg 73%

    18 October, Thursday

    Time Temperature Precipitation Wind Pressure Humidity
    00:00 +13°C° 0 mm 1 mps 751 mmHg 75%
    01:00 +12°C° 0 mm 0 mps 751 mmHg 76%
    02:00 +12°C° 0 mm 0 mps 751 mmHg 77%
    03:00 +12°C° 0 mm 0 mps 750 mmHg 79%
    04:00 +11°C° 0 mm 0 mps 750 mmHg 80%
    05:00 +11°C° 0 mm 0 mps 750 mmHg 81%
    06:00 +11°C° 0 mm 0 mps 751 mmHg 81%
    07:00 +11°C° 0 mm 0 mps 751 mmHg 82%
    08:00 +13°C° 0 mm 0 mps 751 mmHg 74%
    09:00 +15°C° 0 mm 0 mps 751 mmHg 66%
    10:00 +19°C° 0 mm 1 mps 751 mmHg 57%
    11:00 +20°C° 0 mm 1 mps 751 mmHg 55%
    12:00 +21°C° 0 mm 1 mps 751 mmHg 52%
    13:00 +22°C° 0 mm 1 mps 751 mmHg 49%
    14:00 +22°C° 0 mm 1 mps 751 mmHg 52%
    15:00 +21°C° 0 mm 1 mps 751 mmHg 54%
    16:00 +21°C° 0 mm 1 mps 751 mmHg 57%
    17:00 +19°C° 0 mm 1 mps 751 mmHg 63%
    18:00 +18°C° 0 mm 1 mps 751 mmHg 68%
    19:00 +15°C° 0 mm 1 mps 751 mmHg 74%
    20:00 +15°C° 0 mm 1 mps 752 mmHg 76%
    21:00 +14°C° 0 mm 1 mps 752 mmHg 79%
    22:00 +14°C° 0 mm 1 mps 752 mmHg 82%
    23:00 +14°C° 0 mm 1 mps 752 mmHg 83%

    19 October, Friday

    Time Temperature Precipitation Wind Pressure Humidity
    00:00 +13°C° 0 mm 1 mps 752 mmHg 85%
    01:00 +13°C° 0 mm 1 mps 752 mmHg 87%
    02:00 +13°C° 0 mm 1 mps 752 mmHg 88%
    03:00 +12°C° 0 mm 1 mps 752 mmHg 89%
    04:00 +12°C° 0 mm 1 mps 752 mmHg 90%
    05:00 +12°C° 0 mm 1 mps 752 mmHg 90%
    06:00 +12°C° 0 mm 1 mps 752 mmHg 91%
    07:00 +12°C° 0 mm 1 mps 753 mmHg 91%
    08:00 +13°C° 0 mm 1 mps 753 mmHg 86%
    09:00 +14°C° 0 mm 2 mps 753 mmHg 81%
    10:00 +15°C° 0 mm 2 mps 753 mmHg 75%
    11:00 +16°C° 0 mm 2 mps 753 mmHg 71%
    12:00 +17°C° 0 mm 2 mps 753 mmHg 68%
    13:00 +18°C° 0 mm 2 mps 753 mmHg 64%
    14:00 +17°C° 0 mm 2 mps 753 mmHg 64%
    15:00 +17°C° 0 mm 2 mps 753 mmHg 64%
    16:00 +17°C° 0 mm 2 mps 753 mmHg 64%
    17:00 +15°C° 0 mm 2 mps 753 mmHg 66%
    18:00 +14°C° 0 mm 2 mps 753 mmHg 68%
    19:00 +13°C° 0 mm 2 mps 754 mmHg 71%
    20:00 +12°C° 0 mm 1 mps 754 mmHg 71%
    21:00 +11°C° 0 mm 1 mps 754 mmHg 71%
    22:00 +11°C° 0 mm 1 mps 754 mmHg 71%
    23:00 +10°C° 0 mm 1 mps 754 mmHg 73%

    20 October, Saturday

    Time Temperature Precipitation Wind Pressure Humidity
    00:00 +9°C° 0 mm 1 mps 754 mmHg 75%
    01:00 +9°C° 0 mm 1 mps 754 mmHg 77%
    02:00 +8°C° 0 mm 1 mps 754 mmHg 79%
    03:00 +8°C° 0 mm 1 mps 755 mmHg 82%
    04:00 +6°C° 0 mm 2 mps 755 mmHg 84%
    05:00 +6°C° 0 mm 2 mps 755 mmHg 86%
    06:00 +6°C° 0 mm 2 mps 755 mmHg 88%
    07:00 +5°C° 0 mm 2 mps 756 mmHg 90%
    08:00 +7°C° 0 mm 2 mps 756 mmHg 83%
    09:00 +8°C° 0 mm 2 mps 756 mmHg 77%
    10:00 +10°C° 0 mm 3 mps 757 mmHg 70%
    11:00 +10°C° 0 mm 3 mps 757 mmHg 66%
    12:00 +11°C° 0 mm 3 mps 756 mmHg 62%
    13:00 +12°C° 0 mm 3 mps 756 mmHg 58%
    14:00 +11°C° 0 mm 3 mps 756 mmHg 58%
    15:00 +11°C° 0 mm 3 mps 756 mmHg 59%
    16:00 +11°C° 0 mm 3 mps 756 mmHg 59%
    17:00 +10°C° 0 mm 2 mps 757 mmHg 64%
    18:00 +8°C° 0 mm 2 mps 757 mmHg 69%
    19:00 +8°C° 0 mm 1 mps 757 mmHg 75%
    20:00 +8°C° 0 mm 1 mps 758 mmHg 77%
    21:00 +7°C° 0 mm 1 mps 758 mmHg 79%
    22:00 +7°C° 0 mm 1 mps 758 mmHg 81%
    23:00 +7°C° 0 mm 1 mps 758 mmHg 82%
    Show more